This demonstration page uses our WeatherBlox Daily Observations layout. Learn more.

Left ArrowRight Arrow

39.29038, -76.61219

Hourly Observations for April 12, 2022

Temp ( °F °C ) Dew Point ( °F °C ) Humidity (%) Winds ( mph kmh ) Pressure ( in mb ) Visibility ( mi km ) Precip ( " mm )
12:54 am 00:54 Cloudy 52 11.1 42 5.6 69 69 E 7 11 30.01 1016 10 16 0.00 0.00
1:54 am 01:54 Cloudy 52 11.1 43 6.1 72 72 E 3 6 29.98 1015 10 16 0.00 0.00
2:54 am 02:54 Cloudy 52 11.1 43 6.1 72 72 Calm 29.97 1015 10 16 0.00 0.00
3:54 am 03:54 Cloudy 51 10.6 43 6.1 74 74 Calm 29.96 1014 10 16 0.00 0.00
4:54 am 04:54 Cloudy 51 10.6 44 6.7 77 77 Calm 29.96 1015 10 16 0.00 0.00
5:54 am 05:54 Cloudy 51 10.6 45 7.2 80 80 Calm 29.96 1015 10 16 0.00 0.00
6:54 am 06:54 Cloudy 52 11.1 44 6.7 75 75 W 3 6 30.00 1016 10 16 0.00 0.00
7:54 am 07:54 Mostly Cloudy 53 11.7 46 7.8 77 77 W 3 6 30.02 1017 10 16 0.00 0.00
8:54 am 08:54 Mostly Cloudy 56 13.3 48 8.9 75 75 Calm 30.03 1017 10 16 0.00 0.00
9:54 am 09:54 Mostly Cloudy 63 17.2 49 9.4 60 60 W 8 13 30.04 1017 10 16 0.00 0.00
10:54 am 10:54 Mostly Cloudy 70 21.1 51 10.6 51 51 W 13 20 30.05 1018 10 16 0.00 0.00
11:54 am 11:54 Mostly Cloudy 74 23.3 52 11.1 46 46 NW 17 28 30.06 1018 10 16 0.00 0.00
12:54 pm 12:54 Mostly Cloudy 74 23.3 53 11.7 48 48 W 12 19 30.06 1018 10 16 0.00 0.00
1:54 pm 13:54 Mostly Cloudy 72 22.2 52 11.1 50 50 WNW 8 13 30.06 1018 10 16 0.00 0.00
2:54 pm 14:54 Mostly Cloudy 74 23.3 52 11.1 46 46 WNW 10 17 30.04 1017 10 16 0.00 0.00
3:54 pm 15:54 Partly Cloudy 76 24.4 51 10.6 42 42 WNW 8 13 30.01 1016 10 16 0.00 0.00
4:54 pm 16:54 Partly Cloudy 78 25.6 52 11.1 40 40 W 12 19 30.01 1016 10 16 0.00 0.00
5:54 pm 17:54 Partly Cloudy 77 25 52 11.1 42 42 W 8 13 30.02 1017 10 16 0.00 0.00
6:54 pm 18:54 Partly Cloudy 77 25 50 10 39 39 VRB 3 6 30.02 1017 10 16 0.00 0.00
7:54 pm 19:54 Partly Cloudy 71 21.7 51 10.6 49 49 ESE 7 11 30.04 1017 10 16 0.00 0.00
8:54 pm 20:54 Partly Cloudy 69 20.6 51 10.6 53 53 ESE 3 6 30.05 1018 10 16 0.00 0.00
9:54 pm 21:54 Partly Cloudy 68 20 51 10.6 55 55 SE 5 7 30.06 1018 10 16 0.00 0.00
10:54 pm 22:54 Mostly Cloudy 67 19.4 51 10.6 57 57 SSE 3 6 30.06 1018 10 16 0.00 0.00
11:54 pm 23:54 Mostly Cloudy 65 18.3 51 10.6 61 61 Calm 30.05 1018 10 16 0.00 0.00

Powered by AerisWeather